Tracking 18796 objects as of 20-September-2017
HD Live streaming from Space Station
objects crossing your sky now

SL-8 DEB

Track SL-8 DEB now!
10-day predictions


NORAD ID: 18545
Int'l Code: 1986-100C
Perigee: 882.1 km
Apogee: 902.6 km
Inclination: 82.9 °
Period: 102.7 minutes
Semi major axis: 7263 km
RCS: 0.0131 m2 (small)
Launch date: December 17, 1986
Source: Commonwealth of Independent States (former USSR) (CIS)
Launch site: PLESETSK MISSILE AND SPACE COMPLEX (PKMTR)

Note: This is SATELLITE DEBRIS
aabbcc
Your satellite tracking list
Your tracking list is empty





NASA's NSSDC Master Catalog

Two Line Element Set (TLE):
1 18545U 86100C   17262.59377392 +.00000526 +00000-0 +33165-3 0  9995
2 18545 082.9249 107.3066 0014116 212.2923 202.0079 14.02495792557051
Source of the keplerian elements: AFSPC